Exeter, United Kingdom

8:15 AM BST on August 23, 2017 (GMT +0100)
Exeter

Weather History for EGTE - February, 2013

Change the Weather History Date:

Sunday, February 17, 2013

  Actual Average Record
Temperature  
Mean Temperature 45 °F -  
Max Temperature 48 °F 49 °F 53 °F (2000)
Min Temperature 42 °F 37 °F 23 °F (2001)
Degree Days  
Heating Degree Days 20    
Moisture  
Dew Point 39 °F    
Average Humidity 77    
Maximum Humidity 99    
Minimum Humidity 58    
Precipitation  
Precipitation 0.00 in - - ()
Sea Level Pressure  
Sea Level Pressure 30.04 in    
Wind  
Wind Speed 13 mph ()    
Max Wind Speed 21 mph    
Max Gust Speed -    
Visibility 6.2 miles    
Events      
Averages and records for this station are not official NWS values.
T = Trace of Precipitation, MM = Missing Value Source: Averaged Metar Reports

Daily Weather History Graph

Daily Weather History Graph

Search for Another Location

Airport or City:

Trip Planner

Search our weather history database for the weather conditions in past years. The results will help you decide how hot, cold, wet, or windy it might be!

Date:

Astronomy

Feb. 17, 2013 Rise Set
Actual Time 7:21 AM GMT 5:34 PM GMT
Civil Twilight 6:48 AM GMT 6:08 PM GMT
Nautical Twilight 6:09 AM GMT 6:46 PM GMT
Astronomical Twilight 5:31 AM GMT 7:24 PM GMT
Moon 10:14 AM GMT (2/17) 1:05 AM GMT (2/17)
Length of Visible Light 11h 19m
Length of Day
10h 12m
Waxing Crescent, 47% of the Moon is Illuminated
Feb 17
Waxing Crescent
Feb 17
First Quarter
Feb 25
Full
Mar 4
Last Quarter
Mar 11
New

Hourly Weather History & Observations

Time (GMT) Temp. Windchill Dew Point Humidity Pressure Visibility Wind Dir Wind Speed Gust Speed Precip Events Conditions
2:50 AM 44 °F - 40 °F 81%  in - ESE 10.4 mph - -  
5:50 AM 43 °F - 43 °F 99%  in - East 5.8 mph - -  
7:50 AM 42.8 °F 37.0 °F 41.0 °F 93% 30.09 in 6.2 mi SE 10.4 mph - N/A   Scattered Clouds
8:20 AM 44.6 °F 39.7 °F 41.0 °F 87% 30.09 in 6.2 mi SE 9.2 mph - N/A   Scattered Clouds
8:50 AM 46 °F - 41 °F 78%  in - SE 11.5 mph - -  
8:50 AM 44.6 °F 38.8 °F 41.0 °F 87% 30.09 in 6.2 mi SE 11.5 mph - N/A   Scattered Clouds
9:20 AM 46.4 °F 40.4 °F 41.0 °F 81% 30.09 in 6.2 mi SE 13.8 mph - N/A   Scattered Clouds
9:50 AM 46.4 °F 39.8 °F 39.2 °F 76% 30.09 in 6.2 mi SE 16.1 mph - N/A   Scattered Clouds
10:20 AM 46.4 °F 39.5 °F 41.0 °F 81% 30.09 in 6.2 mi SE 17.3 mph - N/A   Scattered Clouds
10:50 AM 46.4 °F 39.2 °F 41.0 °F 81% 30.06 in 6.2 mi SE 18.4 mph - N/A   Scattered Clouds
11:20 AM 46.4 °F 39.2 °F 39.2 °F 76% 30.06 in 6.2 mi SE 18.4 mph - N/A   Scattered Clouds
11:50 AM 47 °F - 37 °F 58%  in - SE 17.3 mph - -  
12:20 PM 46.4 °F 38.7 °F 37.4 °F 71% 30.06 in 6.2 mi SE 20.7 mph - N/A   Scattered Clouds
12:50 PM 48.2 °F - 35.6 °F 62% 30.06 in 6.2 mi SE 19.6 mph - N/A   Scattered Clouds
1:20 PM 46.4 °F 39.5 °F 35.6 °F 66% 30.06 in 6.2 mi SE 17.3 mph - N/A   Scattered Clouds
1:50 PM 46.4 °F 38.7 °F 37.4 °F 71% 30.04 in 6.2 mi ESE 20.7 mph - N/A   Scattered Clouds
2:20 PM 46.4 °F 39.5 °F 37.4 °F 71% 30.04 in 6.2 mi SE 17.3 mph - N/A   Scattered Clouds
2:50 PM 47 °F - 37 °F 60%  in - SE 17.3 mph - -  
2:50 PM 46.4 °F 39.0 °F 37.4 °F 71% 30.04 in 6.2 mi ESE 19.6 mph - N/A   Partly Cloudy
3:20 PM 46.4 °F 39.2 °F 37.4 °F 71% 30.04 in 6.2 mi ESE 18.4 mph - N/A   Partly Cloudy
3:50 PM 46.4 °F 39.5 °F 39.2 °F 76% 30.01 in 6.2 mi ESE 17.3 mph - N/A   Partly Cloudy
4:20 PM 44.6 °F 37.2 °F 37.4 °F 76% 30.01 in 6.2 mi ESE 17.3 mph - N/A   Partly Cloudy
4:50 PM 44.6 °F 37.4 °F 37.4 °F 76% 30.01 in 6.2 mi SE 16.1 mph - N/A   Partly Cloudy
5:20 PM 44.6 °F 37.4 °F 37.4 °F 76% 30.01 in 6.2 mi ESE 16.1 mph - N/A   Partly Cloudy
5:50 PM 43 °F - 36 °F 70%  in - ESE 10.4 mph - -  
5:50 PM 42.8 °F 35.4 °F 37.4 °F 81% 30.01 in 6.2 mi ESE 15.0 mph - N/A   Partly Cloudy
6:20 PM 42.8 °F 35.8 °F 35.6 °F 76% 30.01 in 6.2 mi ESE 13.8 mph - N/A   Partly Cloudy
6:50 PM 42.8 °F 35.8 °F 37.4 °F 81% 30.01 in 6.2 mi ESE 13.8 mph - N/A   Partly Cloudy
7:20 PM 42.8 °F 36.2 °F 37.4 °F 81% 30.01 in 6.2 mi ESE 12.7 mph - N/A   Partly Cloudy
7:50 PM 42.8 °F 35.4 °F 37.4 °F 81% 30.01 in 6.2 mi ESE 15.0 mph - N/A   Partly Cloudy
8:20 PM 42.8 °F 35.4 °F 39.2 °F 87% 30.01 in 6.2 mi ESE 15.0 mph - N/A   Partly Cloudy
8:50 PM 44 °F - 40 °F 81%  in - ESE 12.7 mph - -  
8:50 PM 44.6 °F 38.8 °F 39.2 °F 81% 30.01 in 6.2 mi East 11.5 mph - N/A   Scattered Clouds
9:20 PM 44.6 °F 38.4 °F 39.2 °F 81% 30.01 in 6.2 mi ESE 12.7 mph - N/A   Scattered Clouds
9:50 PM 44.6 °F 38.8 °F 39.2 °F 81% 30.01 in 6.2 mi East 11.5 mph - N/A   Scattered Clouds